Вернуться в каталог

CZ-4 DEB

АктивенSSO
NORAD 26162·DEBRIS·🇨🇳 China

Запущен Oct 14, 1999 с Taiyuan Satellite Launch Center

Loading…

Ближайшие Пролёты (ближайшие 24 часа)

TLE

СвежийSource: Space-Track

Эпоха: Sep 14, 2026, 02:17 UTC

1 26162U 99057AY  26257.09582073  .00001171  00000-0  46340-3 0  9993
2 26162  99.0743 321.9662 0253725  86.7009 276.3153 14.14776405355036

Отслеживайте CZ-4 DEB в реальном времени с AllMySat

Download on the App Store